Location: Unspecified
(50.7693°N, 0.0000°E)
Time: 16:58:24
(UTC+00:00)

A-11 Canister half - Pass Details

Date: 26 June 2019
Orbit: 1526 x 1683 km, 47.3° (Epoch: 20 July)

Event Time Altitude Azimuth Distance (km) Brightness Sun altitude
Rises 07:30:32 0° 276° (W) 4,713 11.0 31.6°
Reaches altitude 10° 07:33:37 10° 274° (W) 3,717 10.6 32.1°
Maximum altitude 07:42:49 66° 195° (SSW) 1,647 9.6 33.5°
Drops below altitude 10° 07:51:59 10° 116° (ESE) 3,700 12.2 35.0°
Sets 07:55:03 0° 114° (ESE) 4,692 12.5 35.5°
